COSMOS 2251 DEB, 34433

Orbit data source: Space-Track

COSMOS 2251 DEB, 34433 is space debris in LEO originally from a launch on Wed, 16 Jun 1993 UTC launched from the Plesetsk Missile And Space Complex (PKMTR). The debris from Iridium 33, an American commercial communications satellite, has been tracked extensively since its accidental collision with the defunct Russian satellite Cosmos 2251 in 2009. This event, occurring at high speed in low Earth orbit (LEO), generated thousands of pieces of space debris, significantly increasing the risk of further collisions. The Iridium 33 debris cloud has impacted space traffic management and orbital debris mitigation strategies, making it a subject of ongoing study in space situational awareness.

Loading next visibility...
Identifier
34433, 1993-036SA
Orbit
LEO
Country
Flag of CISCIS
Related business
Manufacturer
Unknown
Mission
Spacecraft
Bus & Motor
Unknown
Mass
Unknown
Launch date (UTC)
1993-06-16 (33 years ago)
Launch vehicle
Unknown
Launch site
Plesetsk Missile And Space Complex (PKMTR)
Object type
Payload
Rocket body
Debris
Shape & HBR
Unknown shape, 0.1 m
Radar Cross Section
Medium (>0.1 m² and <1 m²)

Expand to show TLE details & history
Last TLE update: 21 hours ago

TLE from 21 hours ago
0 COSMOS 2251 DEB
1 34433U 93036SA  26237.46816352  .00002359  00000-0  11245-2 0  9997
2 34433  74.0077  61.4544 0150372 141.0297 220.1798 14.14027417895631
Epoch: 2026-08-25T11:14Z
TLE epoch observation values (Epoch: 2026-08-25T11:14:09.328Z)
Latitude
-0.00003°
Longitude
-80.81956°
Altitude
931.882 km
Speed
7.343 km/s
True Right ascension
04h 05m 49s
True Declination
0° 00' 00"
Sunlit
Object was in daylight at epoch
Visualization orbit readout
Latitude
Unknown
Longitude
Unknown
Altitude
Unknown
Speed
Unknown
Apparent Right ascension
Unknown
Apparent Declination
Unknown
Sunlit
N/A
Visualization observer readout
Local Sidereal Time
23:47:16
Azimuth
Unknown
Elevation
Unknown
Doppler factor
Unknown
Orbital elements
Apogee altitude
951.862 km
Perigee altitude
734.683 km
Semi-major axis
7,221.41 km
Eccentricity
0.01504
Inclination
74.0077°
RAAN
61.4544°
Arg. of periapsis
141.0297°
True anomaly
219.08387°
Mean anomaly
220.1798°
Eccentric anomaly
219.63027°
Mean motion
3.5368 °/min
Orbital period
101.79 mins
BSTAR
0.0011245
Loading maneuver chart data...
Computing Atmospheric mass density...
Loading historical data...
Loading historical data...
Loading historical data...
Loading historical data...
Loading historical data...
Loading historical data...
Loading historical data...

Documentation

Showing up to 5 results
|